| time (UTC) | temp F | wind direction | speed MPH | gust MPH | rain 1hr in | rain 24hr in | rain mn in | humidity % | barometer mb |
| 20260508083505 | 49 | 48 | 0.0 | 0.0 | 0.00 | 0.00 | 0.00 | 57 | 1019.6 |
| 20260508083004 | 49 | 43 | 0.0 | 0.0 | 0.00 | 0.00 | 0.00 | 56 | 1019.6 |
| 20260508082505 | 49 | 53 | 1.0 | 1.0 | 0.00 | 0.00 | 0.00 | 56 | 1019.6 |
| 20260508082006 | 49 | 51 | 1.0 | 1.0 | 0.00 | 0.00 | 0.00 | 55 | 1019.3 |
| 20260508081507 | 50 | 55 | 0.0 | 0.0 | 0.00 | 0.00 | 0.00 | 55 | 1019.3 |
| 20260508081005 | 50 | 51 | 1.0 | 2.0 | 0.00 | 0.00 | 0.00 | 53 | 1019.3 |
| 20260508080504 | 50 | 56 | 1.0 | 1.0 | 0.00 | 0.00 | 0.00 | 54 | 1019.3 |
| 20260508080005 | 50 | 75 | 0.0 | 1.0 | 0.00 | 0.00 | 0.00 | 54 | 1019.3 |
| 20260508075505 | 50 | 68 | 2.0 | 3.0 | 0.00 | 0.00 | 0.00 | 54 | 1019.3 |
| 20260508075005 | 50 | 22 | 0.0 | 0.0 | 0.00 | 0.00 | 0.00 | 54 | 1019.3 |
| 20260508074505 | 50 | 67 | 2.0 | 3.0 | 0.00 | 0.00 | 0.00 | 54 | 1019.0 |
| 20260508074004 | 50 | 76 | 3.0 | 5.0 | 0.00 | 0.00 | 0.00 | 54 | 1019.0 |
| 20260508073505 | 50 | 50 | 2.0 | 2.0 | 0.00 | 0.00 | 0.00 | 55 | 1018.3 |
| 20260508073005 | 50 | 77 | 1.0 | 1.0 | 0.00 | 0.00 | 0.00 | 56 | 1018.3 |
| 20260508072504 | 50 | 54 | 1.0 | 1.0 | 0.00 | 0.00 | 0.00 | 58 | 1018.3 |
| 20260508072005 | 50 | 63 | 1.0 | 1.0 | 0.00 | 0.00 | 0.00 | 59 | 1018.3 |
| 20260508071505 | 50 | 42 | 1.0 | 1.0 | 0.00 | 0.00 | 0.00 | 59 | 1018.3 |
| 20260508071005 | 50 | 66 | 0.0 | 2.0 | 0.00 | 0.00 | 0.00 | 60 | 1017.9 |
| 20260508070505 | 50 | 47 | 1.0 | 1.0 | 0.00 | 0.00 | 0.00 | 60 | 1017.9 |
| 20260508070005 | 50 | 20 | 0.0 | 1.0 | 0.00 | 0.00 | 0.00 | 63 | 1017.9 |
| 20260508065504 | 50 | 29 | 1.0 | 1.0 | 0.00 | 0.00 | 0.00 | 64 | 1017.9 |
| 20260508065004 | 49 | 46 | 0.0 | 0.0 | 0.00 | 0.00 | 0.00 | 68 | 1017.9 |
| 20260508064504 | 49 | 47 | 0.0 | 0.0 | 0.00 | 0.00 | 0.00 | 69 | 1017.9 |
| 20260508064004 | 49 | 48 | 0.0 | 0.0 | 0.00 | 0.00 | 0.00 | 70 | 1017.9 |
| 20260508063505 | 49 | 36 | 0.0 | 0.0 | 0.00 | 0.00 | 0.00 | 72 | 1017.9 |
| 20260508063004 | 49 | 50 | 0.0 | 0.0 | 0.00 | 0.00 | 0.00 | 72 | 1017.9 |
| 20260508062505 | 50 | 57 | 2.0 | 2.0 | 0.00 | 0.00 | 0.00 | 72 | 1017.9 |
| 20260508062005 | 50 | 48 | 0.0 | 0.0 | 0.00 | 0.00 | 0.00 | 73 | 1017.6 |
| 20260508061505 | 50 | 47 | 1.0 | 1.0 | 0.00 | 0.00 | 0.00 | 73 | 1017.6 |
| 20260508061004 | 50 | 54 | 0.0 | 0.0 | 0.00 | 0.00 | 0.00 | 73 | 1017.6 |
| 20260508060508 | 50 | 58 | 1.0 | 1.0 | 0.00 | 0.00 | 0.00 | 73 | 1017.6 |
| 20260508060005 | 50 | 68 | 2.0 | 3.0 | 0.00 | 0.00 | 0.00 | 74 | 1017.6 |
| 20260508055504 | 50 | 57 | 1.0 | 1.0 | 0.00 | 0.00 | 0.00 | 74 | 1017.6 |
| 20260508055004 | 50 | 72 | 2.0 | 3.0 | 0.00 | 0.00 | 0.00 | 76 | 1017.6 |
| 20260508054504 | 50 | 61 | 1.0 | 1.0 | 0.00 | 0.00 | 0.00 | 76 | 1017.6 |
| 20260508054004 | 50 | 63 | 1.0 | 1.0 | 0.00 | 0.00 | 0.00 | 77 | 1017.6 |
| 20260508053504 | 50 | 78 | 0.0 | 1.0 | 0.00 | 0.00 | 0.00 | 77 | 1017.3 |
| 20260508053005 | 50 | 59 | 0.0 | 3.0 | 0.00 | 0.00 | 0.00 | 77 | 1017.3 |
| 20260508052504 | 50 | 57 | 0.0 | 0.0 | 0.00 | 0.00 | 0.00 | 77 | 1017.3 |
| 20260508052005 | 51 | 50 | 0.0 | 0.0 | 0.00 | 0.00 | 0.00 | 77 | 1017.3 |
| 20260508051504 | 51 | 59 | 1.0 | 1.0 | 0.00 | 0.00 | 0.00 | 77 | 1017.3 |
| 20260508051005 | 51 | 61 | 0.0 | 0.0 | 0.00 | 0.00 | 0.00 | 76 | 1017.3 |
| 20260508050504 | 51 | 51 | 0.0 | 0.0 | 0.00 | 0.00 | 0.00 | 76 | 1017.3 |
| 20260508050005 | 51 | 56 | 1.0 | 1.0 | 0.00 | 0.00 | 0.00 | 76 | 1017.3 |
| 20260508045505 | 51 | 56 | 1.0 | 2.0 | 0.00 | 0.00 | 0.00 | 76 | 1017.3 |
| 20260508045005 | 51 | 72 | 1.0 | 1.0 | 0.00 | 0.00 | 0.00 | 76 | 1017.3 |
| 20260508044504 | 51 | 66 | 0.0 | 1.0 | 0.00 | 0.00 | 0.00 | 76 | 1017.3 |
| 20260508044004 | 51 | 61 | 1.0 | 1.0 | 0.00 | 0.00 | 0.00 | 75 | 1017.3 |
| 20260508043504 | 51 | 55 | 1.0 | 1.0 | 0.00 | 0.00 | 0.00 | 75 | 1017.3 |
| 20260508043004 | 51 | 53 | 0.0 | 1.0 | 0.00 | 0.00 | 0.00 | 75 | 1017.3 |
| 20260508042504 | 51 | 62 | 1.0 | 1.0 | 0.00 | 0.00 | 0.00 | 74 | 1017.3 |
| 20260508042004 | 51 | 68 | 2.0 | 3.0 | 0.00 | 0.00 | 0.00 | 74 | 1017.3 |
| 20260508041505 | 51 | 67 | 1.0 | 1.0 | 0.00 | 0.00 | 0.00 | 73 | 1017.3 |
| 20260508041004 | 51 | 57 | 1.0 | 1.0 | 0.00 | 0.00 | 0.00 | 73 | 1017.3 |
| 20260508040505 | 52 | 73 | 2.0 | 2.0 | 0.00 | 0.00 | 0.00 | 73 | 1017.3 |
| 20260508040005 | 52 | 44 | 0.0 | 0.0 | 0.00 | 0.00 | 0.02 | 73 | 1017.3 |
| 20260508035504 | 52 | 50 | 2.0 | 2.0 | 0.00 | 0.00 | 0.02 | 72 | 1017.3 |
| 20260508035005 | 52 | 70 | 1.0 | 1.0 | 0.00 | 0.00 | 0.02 | 72 | 1017.3 |
| 20260508034505 | 52 | 61 | 2.0 | 3.0 | 0.00 | 0.00 | 0.02 | 72 | 1017.3 |
| 20260508034004 | 52 | 58 | 1.0 | 1.0 | 0.00 | 0.00 | 0.02 | 72 | 1017.3 |
| 20260508033504 | 52 | 62 | 1.0 | 2.0 | 0.00 | 0.00 | 0.02 | 72 | 1017.3 |
| 20260508033004 | 52 | 64 | 1.0 | 1.0 | 0.00 | 0.00 | 0.02 | 72 | 1017.3 |
| 20260508032505 | 52 | 43 | 1.0 | 2.0 | 0.00 | 0.00 | 0.02 | 72 | 1017.3 |
| 20260508032004 | 52 | 61 | 0.0 | 1.0 | 0.00 | 0.00 | 0.02 | 71 | 1017.3 |
| 20260508031506 | 52 | 68 | 0.0 | 1.0 | 0.00 | 0.00 | 0.02 | 71 | 1017.3 |
| 20260508031005 | 52 | 32 | 0.0 | 0.0 | 0.00 | 0.00 | 0.02 | 71 | 1017.3 |
| 20260508030504 | 52 | 58 | 1.0 | 2.0 | 0.00 | 0.00 | 0.02 | 71 | 1017.3 |
| 20260508030005 | 52 | 67 | 1.0 | 2.0 | 0.00 | 0.00 | 0.02 | 71 | 1017.3 |
| 20260508025504 | 53 | 56 | 1.0 | 1.0 | 0.00 | 0.00 | 0.02 | 70 | 1017.3 |
| 20260508025005 | 53 | 90 | 1.0 | 2.0 | 0.00 | 0.00 | 0.02 | 70 | 1017.3 |
| 20260508024504 | 53 | 56 | 1.0 | 2.0 | 0.00 | 0.00 | 0.02 | 69 | 1017.3 |
| 20260508023539 | 53 | 81 | 1.0 | 1.0 | 0.00 | 0.00 | 0.02 | 69 | 1016.9 |
| 20260508023006 | 54 | 66 | 0.0 | 0.0 | 0.00 | 0.00 | 0.02 | 67 | 1016.9 |
| 20260508022504 | 54 | 58 | 1.0 | 2.0 | 0.00 | 0.00 | 0.02 | 67 | 1016.9 |
| 20260508022004 | 54 | 64 | 0.0 | 1.0 | 0.00 | 0.00 | 0.02 | 67 | 1016.9 |
| 20260508021505 | 54 | 64 | 1.0 | 3.0 | 0.00 | 0.00 | 0.02 | 66 | 1016.9 |
| 20260508021004 | 54 | 70 | 1.0 | 2.0 | 0.00 | 0.00 | 0.02 | 66 | 1016.9 |
| 20260508020504 | 55 | 57 | 1.0 | 1.0 | 0.00 | 0.00 | 0.02 | 65 | 1016.9 |
| 20260508020005 | 55 | 83 | 1.0 | 2.0 | 0.00 | 0.00 | 0.02 | 65 | 1016.6 |
| 20260508015505 | 55 | 57 | 1.0 | 4.0 | 0.00 | 0.00 | 0.02 | 64 | 1016.6 |
| 20260508015005 | 55 | 37 | 1.0 | 2.0 | 0.00 | 0.00 | 0.02 | 64 | 1016.6 |
| 20260508014504 | 55 | 41 | 1.0 | 1.0 | 0.00 | 0.00 | 0.02 | 64 | 1016.6 |
| 20260508014004 | 55 | 59 | 1.0 | 1.0 | 0.00 | 0.00 | 0.02 | 63 | 1016.6 |
| 20260508013505 | 55 | 79 | 0.0 | 0.0 | 0.00 | 0.00 | 0.02 | 63 | 1016.6 |
| 20260508013005 | 56 | 35 | 0.0 | 1.0 | 0.00 | 0.00 | 0.02 | 62 | 1016.6 |
| 20260508012504 | 56 | 45 | 1.0 | 2.0 | 0.00 | 0.00 | 0.02 | 62 | 1016.6 |
| 20260508012004 | 56 | 57 | 1.0 | 1.0 | 0.00 | 0.00 | 0.02 | 62 | 1016.6 |
| 20260508011505 | 56 | 85 | 1.0 | 2.0 | 0.00 | 0.00 | 0.02 | 61 | 1016.6 |
| 20260508011005 | 56 | 24 | 0.0 | 2.0 | 0.00 | 0.00 | 0.02 | 61 | 1016.3 |
| 20260508010505 | 56 | 64 | 2.0 | 2.0 | 0.00 | 0.00 | 0.02 | 60 | 1016.3 |
| 20260508010005 | 56 | 57 | 1.0 | 1.0 | 0.00 | 0.00 | 0.02 | 60 | 1015.9 |
| 20260508005505 | 56 | 80 | 1.0 | 2.0 | 0.00 | 0.00 | 0.02 | 59 | 1015.9 |
| 20260508005004 | 57 | 57 | 2.0 | 3.0 | 0.00 | 0.00 | 0.02 | 59 | 1015.9 |
| 20260508004505 | 57 | 89 | 2.0 | 3.0 | 0.00 | 0.00 | 0.02 | 58 | 1015.9 |
| 20260508004004 | 57 | 270 | 2.0 | 2.0 | 0.00 | 0.00 | 0.02 | 58 | 1015.9 |
| 20260508003505 | 57 | 300 | 1.0 | 2.0 | 0.00 | 0.00 | 0.02 | 58 | 1015.2 |
| 20260508003005 | 57 | 57 | 1.0 | 1.0 | 0.00 | 0.00 | 0.02 | 57 | 1015.2 |
| 20260508002504 | 58 | 58 | 2.0 | 4.0 | 0.00 | 0.00 | 0.02 | 56 | 1015.2 |
| 20260508002004 | 58 | 252 | 0.0 | 1.0 | 0.00 | 0.00 | 0.02 | 56 | 1015.2 |
| 20260508001506 | 58 | 348 | 1.0 | 1.0 | 0.00 | 0.00 | 0.02 | 55 | 1015.2 |
| 20260508001005 | 58 | 350 | 1.0 | 1.0 | 0.00 | 0.00 | 0.02 | 55 | 1015.2 |
| 20260508000505 | 58 | 92 | 2.0 | 2.0 | 0.00 | 0.00 | 0.02 | 54 | 1015.2 |
| 20260508000004 | 58 | 91 | 2.0 | 3.0 | 0.00 | 0.00 | 0.02 | 54 | 1014.6 |
| 20260507235504 | 59 | 65 | 1.0 | 1.0 | 0.00 | 0.00 | 0.02 | 54 | 1014.6 |
| 20260507235006 | 59 | 37 | 3.0 | 4.0 | 0.00 | 0.00 | 0.02 | 53 | 1014.6 |
| 20260507234505 | 59 | 272 | 3.0 | 4.0 | 0.00 | 0.00 | 0.02 | 53 | 1014.6 |
| 20260507234004 | 59 | 252 | 3.0 | 6.0 | 0.00 | 0.00 | 0.02 | 52 | 1014.6 |
| 20260507233505 | 60 | 131 | 2.0 | 3.0 | 0.00 | 0.00 | 0.02 | 51 | 1014.6 |
| 20260507233004 | 60 | 31 | 2.0 | 4.0 | 0.00 | 0.00 | 0.02 | 50 | 1014.6 |
| 20260507232504 | 61 | 270 | 3.0 | 3.0 | 0.00 | 0.00 | 0.02 | 49 | 1014.6 |
| 20260507232004 | 62 | 74 | 2.0 | 2.0 | 0.00 | 0.00 | 0.02 | 48 | 1014.6 |
| 20260507231504 | 62 | 30 | 2.0 | 2.0 | 0.00 | 0.00 | 0.02 | 47 | 1014.6 |
| 20260507231004 | 63 | 50 | 1.0 | 3.0 | 0.00 | 0.00 | 0.02 | 47 | 1014.2 |
| 20260507230505 | 63 | 264 | 3.0 | 3.0 | 0.00 | 0.00 | 0.02 | 46 | 1014.2 |
| 20260507230005 | 63 | 278 | 2.0 | 2.0 | 0.00 | 0.00 | 0.02 | 46 | 1014.2 |
| 20260507225505 | 63 | 53 | 1.0 | 3.0 | 0.00 | 0.00 | 0.02 | 45 | 1014.2 |
| 20260507225005 | 65 | 51 | 1.0 | 1.0 | 0.00 | 0.00 | 0.02 | 43 | 1014.2 |
| 20260507224505 | 65 | 263 | 6.0 | 6.0 | 0.00 | 0.00 | 0.02 | 42 | 1014.2 |
| 20260507224005 | 66 | 31 | 3.0 | 3.0 | 0.00 | 0.00 | 0.02 | 41 | 1014.2 |
| 20260507223505 | 67 | 223 | 1.0 | 1.0 | 0.00 | 0.00 | 0.02 | 40 | 1014.2 |
| 20260507223004 | 67 | 50 | 1.0 | 1.0 | 0.00 | 0.00 | 0.02 | 39 | 1014.2 |
| 20260507222504 | 69 | 268 | 2.0 | 3.0 | 0.00 | 0.00 | 0.02 | 36 | 1014.2 |
| 20260507222006 | 70 | 277 | 4.0 | 4.0 | 0.00 | 0.00 | 0.02 | 26 | 1014.2 |
| 20260507221504 | 72 | 35 | 2.0 | 3.0 | 0.00 | 0.00 | 0.02 | 25 | 1014.2 |
| 20260507221006 | 71 | 55 | 1.0 | 2.0 | 0.00 | 0.00 | 0.02 | 27 | 1014.2 |
| 20260507220504 | 71 | 55 | 1.0 | 1.0 | 0.00 | 0.00 | 0.02 | 26 | 1014.2 |
| 20260507220004 | 71 | 26 | 1.0 | 1.0 | 0.00 | 0.00 | 0.02 | 26 | 1013.9 |
| 20260507215505 | 71 | 43 | 0.0 | 0.0 | 0.00 | 0.00 | 0.02 | 27 | 1013.9 |
| 20260507215004 | 71 | 299 | 3.0 | 5.0 | 0.00 | 0.00 | 0.02 | 26 | 1013.9 |
| 20260507214505 | 71 | 24 | 1.0 | 2.0 | 0.00 | 0.00 | 0.02 | 27 | 1014.2 |
| 20260507214004 | 72 | 46 | 0.0 | 0.0 | 0.00 | 0.00 | 0.02 | 26 | 1014.2 |
| 20260507213504 | 71 | 60 | 2.0 | 3.0 | 0.00 | 0.00 | 0.02 | 26 | 1014.2 |
| 20260507213005 | 72 | 41 | 1.0 | 1.0 | 0.00 | 0.00 | 0.02 | 26 | 1014.2 |
| 20260507212505 | 71 | 70 | 2.0 | 3.0 | 0.00 | 0.00 | 0.02 | 26 | 1014.2 |
| 20260507212005 | 72 | 80 | 0.0 | 0.0 | 0.00 | 0.00 | 0.02 | 26 | 1014.2 |
| 20260507211505 | 70 | 53 | 2.0 | 3.0 | 0.00 | 0.00 | 0.02 | 26 | 1014.2 |
| 20260507211004 | 71 | 55 | 1.0 | 2.0 | 0.00 | 0.00 | 0.02 | 25 | 1014.2 |
| 20260507210505 | 71 | 17 | 1.0 | 1.0 | 0.00 | 0.00 | 0.02 | 26 | 1014.2 |
| 20260507210005 | 71 | 72 | 3.0 | 4.0 | 0.00 | 0.00 | 0.02 | 27 | 1014.2 |
| 20260507205504 | 72 | 51 | 1.0 | 1.0 | 0.00 | 0.00 | 0.02 | 25 | 1014.2 |
| 20260507205005 | 72 | 61 | 1.0 | 1.0 | 0.00 | 0.00 | 0.02 | 25 | 1014.2 |
| 20260507204504 | 72 | 73 | 3.0 | 4.0 | 0.00 | 0.00 | 0.02 | 24 | 1014.2 |
| 20260507204005 | 73 | 52 | 2.0 | 2.0 | 0.00 | 0.00 | 0.02 | 24 | 1014.2 |
| 20260507203504 | 72 | 62 | 2.0 | 2.0 | 0.00 | 0.00 | 0.02 | 25 | 1014.2 |
| 20260507203005 | 71 | 61 | 3.0 | 6.0 | 0.00 | 0.00 | 0.02 | 25 | 1014.2 |
| 20260507202504 | 72 | 39 | 1.0 | 1.0 | 0.00 | 0.00 | 0.02 | 25 | 1014.2 |
| 20260507202005 | 71 | 74 | 1.0 | 1.0 | 0.00 | 0.00 | 0.02 | 25 | 1014.2 |
| 20260507201504 | 71 | 55 | 1.0 | 2.0 | 0.00 | 0.00 | 0.02 | 25 | 1014.2 |
| 20260507201005 | 71 | 53 | 4.0 | 5.0 | 0.00 | 0.00 | 0.02 | 26 | 1014.2 |
| 20260507200505 | 72 | 67 | 1.0 | 3.0 | 0.00 | 0.00 | 0.02 | 25 | 1014.2 |
| 20260507200004 | 72 | 11 | 1.0 | 1.0 | 0.00 | 0.00 | 0.02 | 26 | 1014.2 |
| 20260507195505 | 73 | 59 | 2.0 | 2.0 | 0.00 | 0.00 | 0.02 | 26 | 1014.2 |
| 20260507195004 | 72 | 65 | 2.0 | 2.0 | 0.00 | 0.00 | 0.02 | 24 | 1014.2 |
| 20260507194504 | 72 | 44 | 2.0 | 2.0 | 0.00 | 0.00 | 0.02 | 25 | 1014.2 |
| 20260507194005 | 73 | 71 | 2.0 | 2.0 | 0.00 | 0.00 | 0.02 | 25 | 1014.2 |
| 20260507193504 | 73 | 49 | 1.0 | 1.0 | 0.00 | 0.00 | 0.02 | 25 | 1014.6 |
| 20260507193004 | 72 | 50 | 3.0 | 4.0 | 0.00 | 0.00 | 0.02 | 26 | 1014.6 |
| 20260507192504 | 72 | 57 | 0.0 | 0.0 | 0.00 | 0.00 | 0.02 | 25 | 1014.6 |
| 20260507192004 | 71 | 57 | 1.0 | 1.0 | 0.00 | 0.00 | 0.02 | 25 | 1014.9 |
| 20260507191504 | 72 | 60 | 2.0 | 3.0 | 0.00 | 0.00 | 0.02 | 26 | 1014.9 |
| 20260507191004 | 70 | 46 | 3.0 | 6.0 | 0.00 | 0.00 | 0.02 | 26 | 1014.6 |
| 20260507190504 | 71 | 54 | 3.0 | 4.0 | 0.00 | 0.00 | 0.02 | 26 | 1014.6 |
| 20260507190005 | 71 | 59 | 1.0 | 1.0 | 0.00 | 0.00 | 0.02 | 26 | 1014.9 |
| 20260507185504 | 70 | 70 | 1.0 | 1.0 | 0.00 | 0.00 | 0.02 | 27 | 1014.9 |
| 20260507185005 | 70 | 21 | 0.0 | 2.0 | 0.00 | 0.00 | 0.02 | 27 | 1014.9 |
| 20260507184505 | 71 | 62 | 2.0 | 3.0 | 0.00 | 0.00 | 0.02 | 25 | 1015.2 |
| 20260507184005 | 71 | 69 | 1.0 | 3.0 | 0.00 | 0.00 | 0.02 | 26 | 1015.2 |
| 20260507183505 | 69 | 54 | 2.0 | 3.0 | 0.00 | 0.00 | 0.02 | 26 | 1015.2 |
| 20260507183004 | 71 | 32 | 1.0 | 2.0 | 0.00 | 0.00 | 0.02 | 27 | 1015.2 |
| 20260507182504 | 71 | 54 | 2.0 | 2.0 | 0.00 | 0.00 | 0.02 | 26 | 1015.2 |
| 20260507182005 | 71 | 58 | 1.0 | 2.0 | 0.00 | 0.00 | 0.02 | 26 | 1015.2 |
| 20260507181505 | 71 | 66 | 3.0 | 3.0 | 0.00 | 0.00 | 0.02 | 26 | 1015.2 |
| 20260507181004 | 69 | 53 | 0.0 | 0.0 | 0.00 | 0.00 | 0.02 | 28 | 1015.9 |
| 20260507180505 | 68 | 65 | 2.0 | 3.0 | 0.00 | 0.00 | 0.02 | 28 | 1015.9 |
| 20260507180005 | 70 | 22 | 1.0 | 1.0 | 0.00 | 0.00 | 0.02 | 28 | 1016.3 |
| 20260507175504 | 70 | 73 | 2.0 | 4.0 | 0.00 | 0.00 | 0.02 | 28 | 1016.3 |
| 20260507175004 | 70 | 44 | 1.0 | 2.0 | 0.00 | 0.00 | 0.02 | 29 | 1016.3 |
| 20260507174504 | 70 | 78 | 1.0 | 2.0 | 0.00 | 0.00 | 0.02 | 28 | 1016.6 |
| 20260507174005 | 68 | 69 | 1.0 | 1.0 | 0.00 | 0.00 | 0.02 | 31 | 1016.6 |
| 20260507173504 | 66 | 331 | 2.0 | 4.0 | 0.00 | 0.00 | 0.02 | 32 | 1016.6 |
| 20260507173004 | 66 | 264 | 4.0 | 4.0 | 0.00 | 0.00 | 0.02 | 33 | 1016.6 |
| 20260507172505 | 67 | 35 | 1.0 | 3.0 | 0.00 | 0.00 | 0.02 | 30 | 1016.3 |
| 20260507172004 | 67 | 59 | 2.0 | 2.0 | 0.00 | 0.00 | 0.02 | 30 | 1016.3 |
| 20260507171506 | 66 | 40 | 1.0 | 3.0 | 0.00 | 0.00 | 0.02 | 31 | 1016.3 |
| 20260507171004 | 66 | 51 | 0.0 | 1.0 | 0.00 | 0.00 | 0.02 | 31 | 1016.6 |
| 20260507170505 | 66 | 55 | 3.0 | 3.0 | 0.00 | 0.00 | 0.02 | 30 | 1016.6 |
| 20260507170005 | 66 | 330 | 0.0 | 1.0 | 0.00 | 0.00 | 0.02 | 31 | 1016.6 |
| 20260507165504 | 66 | 62 | 0.0 | 1.0 | 0.00 | 0.00 | 0.02 | 32 | 1016.6 |
| 20260507165006 | 65 | 283 | 3.0 | 3.0 | 0.00 | 0.00 | 0.02 | 34 | 1016.6 |
| 20260507164016 | 63 | 60 | 1.0 | 1.0 | 0.00 | 0.00 | 0.02 | 35 | 1017.3 |
| 20260507163504 | 62 | 12 | 2.0 | 2.0 | 0.00 | 0.00 | 0.02 | 37 | 1017.3 |
| 20260507163005 | 61 | 22 | 1.0 | 2.0 | 0.00 | 0.00 | 0.02 | 37 | 1017.3 |
| 20260507162506 | 60 | 270 | 2.0 | 2.0 | 0.00 | 0.00 | 0.02 | 39 | 1017.3 |
| 20260507162004 | 59 | 61 | 3.0 | 4.0 | 0.00 | 0.00 | 0.02 | 42 | 1017.3 |
| 20260507161505 | 59 | 38 | 0.0 | 1.0 | 0.00 | 0.00 | 0.02 | 40 | 1017.3 |
| 20260507161004 | 58 | 53 | 1.0 | 1.0 | 0.00 | 0.00 | 0.02 | 44 | 1017.3 |
| 20260507160509 | 58 | 67 | 2.0 | 3.0 | 0.00 | 0.00 | 0.02 | 43 | 1017.3 |
| 20260507160004 | 59 | 61 | 1.0 | 2.0 | 0.00 | 0.00 | 0.02 | 43 | 1017.6 |
| 20260507155508 | 58 | 56 | 1.0 | 1.0 | 0.00 | 0.00 | 0.02 | 42 | 1017.6 |
| 20260507155005 | 58 | 12 | 2.0 | 2.0 | 0.00 | 0.00 | 0.02 | 44 | 1017.6 |
| 20260507154504 | 58 | 38 | 1.0 | 2.0 | 0.00 | 0.00 | 0.02 | 44 | 1017.6 |
| 20260507154005 | 57 | 46 | 1.0 | 1.0 | 0.00 | 0.00 | 0.02 | 45 | 1017.6 |
| 20260507153507 | 58 | 44 | 1.0 | 1.0 | 0.00 | 0.00 | 0.02 | 46 | 1017.6 |
| 20260507153007 | 58 | 54 | 0.0 | 1.0 | 0.00 | 0.00 | 0.02 | 47 | 1017.6 |
| 20260507152507 | 57 | 46 | 1.0 | 1.0 | 0.00 | 0.00 | 0.02 | 48 | 1017.9 |
| 20260507152005 | 57 | 48 | 0.0 | 1.0 | 0.00 | 0.00 | 0.02 | 49 | 1017.9 |
| 20260507151504 | 56 | 57 | 1.0 | 1.0 | 0.00 | 0.00 | 0.02 | 48 | 1017.9 |
| 20260507151005 | 56 | 3 | 1.0 | 1.0 | 0.00 | 0.00 | 0.02 | 48 | 1017.9 |
| 20260507150505 | 56 | 60 | 0.0 | 0.0 | 0.00 | 0.00 | 0.02 | 50 | 1017.9 |
| 20260507150005 | 56 | 64 | 2.0 | 3.0 | 0.00 | 0.00 | 0.02 | 48 | 1017.9 |
| 20260507145504 | 56 | 47 | 1.0 | 1.0 | 0.00 | 0.00 | 0.02 | 50 | 1017.9 |
| 20260507145006 | 56 | 51 | 1.0 | 1.0 | 0.00 | 0.00 | 0.02 | 51 | 1017.9 |
| 20260507144505 | 56 | 56 | 1.0 | 1.0 | 0.00 | 0.00 | 0.02 | 52 | 1018.3 |
| 20260507144005 | 56 | 53 | 1.0 | 1.0 | 0.00 | 0.00 | 0.02 | 53 | 1018.3 |
| 20260507143505 | 55 | 51 | 1.0 | 1.0 | 0.00 | 0.00 | 0.02 | 57 | 1018.3 |
| 20260507143005 | 55 | 50 | 0.0 | 1.0 | 0.00 | 0.00 | 0.02 | 56 | 1018.3 |
| 20260507142507 | 55 | 51 | 0.0 | 0.0 | 0.00 | 0.00 | 0.02 | 56 | 1018.3 |
| 20260507142004 | 55 | 54 | 0.0 | 1.0 | 0.00 | 0.00 | 0.02 | 57 | 1018.3 |
| 20260507141506 | 55 | 51 | 0.0 | 1.0 | 0.00 | 0.00 | 0.02 | 57 | 1018.3 |
| 20260507141006 | 55 | 69 | 1.0 | 2.0 | 0.00 | 0.00 | 0.02 | 57 | 1018.3 |
| 20260507140504 | 55 | 57 | 0.0 | 1.0 | 0.00 | 0.00 | 0.02 | 57 | 1018.3 |
| 20260507140006 | 55 | 43 | 0.0 | 0.0 | 0.00 | 0.00 | 0.02 | 57 | 1019.0 |
| 20260507135504 | 55 | 46 | 0.0 | 1.0 | 0.00 | 0.00 | 0.02 | 58 | 1019.0 |
| 20260507135004 | 55 | 47 | 0.0 | 1.0 | 0.00 | 0.00 | 0.02 | 60 | 1019.0 |
| 20260507134506 | 54 | 47 | 1.0 | 2.0 | 0.00 | 0.00 | 0.02 | 60 | 1019.0 |
| 20260507134005 | 55 | 63 | 1.0 | 1.0 | 0.00 | 0.00 | 0.02 | 60 | 1019.0 |
| 20260507133506 | 55 | 53 | 0.0 | 0.0 | 0.00 | 0.00 | 0.02 | 59 | 1019.0 |
| 20260507133005 | 55 | 62 | 1.0 | 2.0 | 0.00 | 0.00 | 0.02 | 66 | 1019.0 |
| 20260507132505 | 54 | 69 | 2.0 | 2.0 | 0.00 | 0.00 | 0.02 | 58 | 1019.0 |
| 20260507132004 | 55 | 52 | 1.0 | 1.0 | 0.00 | 0.00 | 0.02 | 59 | 1019.0 |
| 20260507131505 | 54 | 49 | 2.0 | 2.0 | 0.00 | 0.00 | 0.02 | 60 | 1019.0 |
| 20260507131004 | 54 | 48 | 1.0 | 1.0 | 0.00 | 0.00 | 0.02 | 60 | 1019.0 |
| 20260507130505 | 54 | 66 | 2.0 | 2.0 | 0.00 | 0.00 | 0.02 | 60 | 1019.0 |
| 20260507130007 | 54 | 58 | 1.0 | 2.0 | 0.00 | 0.00 | 0.02 | 61 | 1019.0 |
| 20260507125504 | 54 | 53 | 1.0 | 1.0 | 0.00 | 0.00 | 0.02 | 62 | 1019.0 |
| 20260507125005 | 54 | 45 | 0.0 | 1.0 | 0.00 | 0.00 | 0.02 | 61 | 1019.0 |
| 20260507124505 | 54 | 55 | 0.0 | 0.0 | 0.00 | 0.00 | 0.02 | 63 | 1019.0 |
| 20260507124005 | 54 | 62 | 2.0 | 2.0 | 0.00 | 0.00 | 0.02 | 63 | 1019.0 |
| 20260507123505 | 53 | 57 | 1.0 | 1.0 | 0.00 | 0.00 | 0.02 | 63 | 1019.0 |
| 20260507123005 | 54 | 53 | 1.0 | 1.0 | 0.00 | 0.00 | 0.02 | 64 | 1019.0 |
| 20260507122505 | 54 | 62 | 1.0 | 2.0 | 0.00 | 0.00 | 0.02 | 63 | 1018.3 |
| 20260507122005 | 54 | 49 | 1.0 | 1.0 | 0.00 | 0.00 | 0.02 | 65 | 1018.3 |
| 20260507121505 | 54 | 47 | 1.0 | 1.0 | 0.00 | 0.00 | 0.02 | 68 | 1018.3 |
| 20260507121004 | 54 | 53 | 1.0 | 2.0 | 0.00 | 0.00 | 0.02 | 69 | 1017.9 |
| 20260507120504 | 54 | 47 | 1.0 | 1.0 | 0.00 | 0.00 | 0.02 | 77 | 1017.9 |
| 20260507120005 | 54 | 53 | 1.0 | 1.0 | 0.00 | 0.00 | 0.02 | 84 | 1018.3 |
| 20260507115505 | 54 | 56 | 1.0 | 1.0 | 0.00 | 0.00 | 0.02 | 84 | 1018.3 |
| 20260507115004 | 54 | 56 | 1.0 | 1.0 | 0.00 | 0.00 | 0.02 | 84 | 1018.3 |
| 20260507114504 | 54 | 48 | 1.0 | 1.0 | 0.00 | 0.00 | 0.02 | 85 | 1017.9 |
| 20260507114004 | 54 | 50 | 0.0 | 0.0 | 0.00 | 0.00 | 0.02 | 87 | 1017.9 |
| 20260507113504 | 54 | 54 | 0.0 | 1.0 | 0.00 | 0.00 | 0.02 | 86 | 1018.3 |
| 20260507113005 | 54 | 51 | 0.0 | 0.0 | 0.00 | 0.00 | 0.02 | 87 | 1018.3 |
| 20260507112504 | 54 | 54 | 1.0 | 1.0 | 0.00 | 0.00 | 0.02 | 88 | 1018.3 |
| 20260507112006 | 54 | 54 | 0.0 | 0.0 | 0.00 | 0.00 | 0.02 | 88 | 1018.3 |
| 20260507111506 | 54 | 55 | 1.0 | 1.0 | 0.00 | 0.00 | 0.02 | 88 | 1018.3 |
| 20260507111004 | 54 | 54 | 1.0 | 1.0 | 0.00 | 0.00 | 0.02 | 88 | 1017.9 |
| 20260507110504 | 54 | 53 | 0.0 | 0.0 | 0.00 | 0.00 | 0.02 | 89 | 1017.9 |
| 20260507110005 | 54 | 52 | 0.0 | 0.0 | 0.00 | 0.00 | 0.02 | 88 | 1017.9 |
| 20260507105507 | 54 | 52 | 0.0 | 0.0 | 0.00 | 0.00 | 0.02 | 89 | 1017.9 |
| 20260507105004 | 54 | 49 | 0.0 | 0.0 | 0.00 | 0.00 | 0.02 | 89 | 1017.9 |
| 20260507104504 | 54 | 51 | 0.0 | 0.0 | 0.00 | 0.00 | 0.02 | 90 | 1017.9 |
| 20260507104005 | 54 | 51 | 0.0 | 0.0 | 0.00 | 0.00 | 0.02 | 88 | 1017.9 |
| 20260507103505 | 54 | 47 | 0.0 | 0.0 | 0.00 | 0.00 | 0.02 | 88 | 1017.6 |
| 20260507103006 | 54 | 47 | 0.0 | 0.0 | 0.00 | 0.00 | 0.02 | 89 | 1017.6 |
| 20260507102505 | 54 | 43 | 0.0 | 1.0 | 0.00 | 0.00 | 0.02 | 89 | 1017.3 |
| 20260507102006 | 54 | 54 | 0.0 | 0.0 | 0.00 | 0.00 | 0.02 | 87 | 1017.3 |
| 20260507101504 | 54 | 52 | 0.0 | 0.0 | 0.00 | 0.00 | 0.02 | 87 | 1017.3 |
| 20260507101004 | 54 | 52 | 0.0 | 0.0 | 0.00 | 0.00 | 0.02 | 89 | 1017.3 |
| 20260507100505 | 54 | 54 | 1.0 | 1.0 | 0.00 | 0.00 | 0.02 | 88 | 1017.3 |
| 20260507100005 | 54 | 52 | 0.0 | 0.0 | 0.00 | 0.00 | 0.02 | 88 | 1017.3 |
| 20260507095505 | 54 | 52 | 0.0 | 0.0 | 0.00 | 0.00 | 0.02 | 87 | 1017.3 |
| 20260507095004 | 54 | 51 | 0.0 | 0.0 | 0.00 | 0.00 | 0.02 | 88 | 1017.3 |
| 20260507094505 | 54 | 53 | 1.0 | 1.0 | 0.00 | 0.00 | 0.02 | 88 | 1017.3 |
| 20260507094005 | 53 | 54 | 0.0 | 0.0 | 0.00 | 0.00 | 0.02 | 89 | 1017.3 |
| 20260507093506 | 53 | 49 | 1.0 | 1.0 | 0.00 | 0.00 | 0.02 | 89 | 1017.3 |
| 20260507093004 | 54 | 52 | 0.0 | 0.0 | 0.00 | 0.00 | 0.02 | 87 | 1017.3 |
| 20260507092504 | 54 | 46 | 0.0 | 0.0 | 0.00 | 0.00 | 0.02 | 89 | 1017.3 |
| 20260507092004 | 54 | 46 | 0.0 | 0.0 | 0.00 | 0.00 | 0.02 | 89 | 1017.3 |
| 20260507091504 | 54 | 52 | 0.0 | 0.0 | 0.00 | 0.00 | 0.02 | 88 | 1017.3 |
| 20260507091005 | 54 | 53 | 0.0 | 0.0 | 0.00 | 0.00 | 0.02 | 88 | 1017.3 |
| 20260507090505 | 54 | 56 | 2.0 | 2.0 | 0.00 | 0.00 | 0.02 | 88 | 1017.3 |
| 20260507090005 | 54 | 52 | 0.0 | 0.0 | 0.00 | 0.00 | 0.02 | 88 | 1017.3 |
| 20260507085505 | 54 | 47 | 0.0 | 0.0 | 0.00 | 0.00 | 0.02 | 88 | 1017.3 |
| 20260507085006 | 54 | 65 | 1.0 | 1.0 | 0.00 | 0.00 | 0.02 | 87 | 1017.3 |
| 20260507084505 | 54 | 54 | 0.0 | 0.0 | 0.00 | 0.00 | 0.02 | 90 | 1017.3 |
| 20260507084005 | 54 | 55 | 0.0 | 0.0 | 0.00 | 0.00 | 0.02 | 88 | 1017.3 |